START_TIME,STEP,MOV.,M29,t_acc.,H22,t_acc.,H26,t_acc.,H30,t_acc.
1979-07-24 18:00:31.360 ,1,1,0.,24.0,0.,24.0,0.,24.0,0.,24.0
1979-07-24 18:00:55.360 ,2,1,0.,24.0,0.,24.0,0.,24.0,0.,24.0
1979-07-24 18:01:19.360 ,6,1,0.,24.0,0.,24.0,0.,24.0,0.,24.0
1979-07-24 18:01:43.360 ,5,1,0.,24.0,0.,24.0,0.,24.0,0.,24.0
1979-07-24 18:02:07.360 ,1,1,0.,24.0,0.,24.0,0.,24.0,0.,24.0
1979-07-24 18:02:31.360 ,2,1,1.,24.0,0.,24.0,0.,24.0,0.,24.0
1979-07-24 18:02:55.360 ,6,1,0.,24.0,0.,24.0,0.,24.0,0.,24.0
1979-07-24 18:03:19.360 ,5,1,0.,24.0,0.,24.0,0.,24.0,0.,24.0
1979-07-24 18:03:43.360 ,1,1,0.,24.0,0.,24.0,0.,24.0,0.,24.0
1979-07-24 18:04:07.360 ,2,1,0.,24.0,0.,24.0,0.,24.0,0.,24.0
1979-07-24 18:04:31.360 ,6,1,0.,24.0,0.,24.0,0.,24.0,0.,24.0
1979-07-24 18:04:55.360 ,5,1,0.,24.0,0.,24.0,0.,24.0,0.,24.0
1979-07-24 18:05:19.360 ,1,1,0.,24.0,0.,24.0,0.,24.0,0.,24.0
1979-07-24 18:05:43.360 ,0,0,0.,24.0,0.,24.0,0.,24.0,0.,24.0
1979-07-24 18:06:07.360 ,0,0,0.,24.0,0.,24.0,0.,24.0,0.,24.0
1979-07-24 18:06:31.360 ,5,1,0.,24.0,0.,24.0,0.,24.0,0.,24.0
1979-07-24 18:06:55.360 ,5,0,0.,24.0,0.,24.0,0.,24.0,0.,24.0
1979-07-24 18:07:19.360 ,4,1,0.,24.0,0.,24.0,0.,24.0,0.,24.0
1979-07-24 18:07:43.360 ,4,0,0.,24.0,0.,24.0,0.,24.0,0.,24.0
1979-07-24 18:08:07.360 ,3,1,0.,24.0,0.,24.0,0.,24.0,0.,24.0
1979-07-24 18:08:31.360 ,3,0,0.,24.0,0.,24.0,0.,24.0,0.,24.0
1979-07-24 18:08:55.360 ,2,1,0.,24.0,0.,24.0,0.,24.0,0.,24.0
1979-07-24 18:09:19.360 ,2,0,0.,24.0,0.,24.0,0.,24.0,0.,24.0
1979-07-24 18:09:43.360 ,1,1,0.,24.0,0.,24.0,0.,24.0,0.,24.0
1979-07-24 18:10:07.360 ,1,0,0.,24.0,0.,24.0,0.,24.0,0.,24.0
1979-07-24 18:10:31.360 ,0,1,0.,24.0,0.,24.0,0.,24.0,0.,24.0
1979-07-24 18:10:55.360 ,0,0,0.,24.0,0.,24.0,0.,24.0,0.,24.0
1979-07-24 18:11:19.360 ,0,1,0.,24.0,0.,24.0,0.,24.0,0.,24.0
1979-07-24 18:11:43.360 ,0,0,0.,24.0,0.,24.0,0.,24.0,0.,24.0
1979-07-24 18:12:07.360 ,1,1,0.,24.0,0.,24.0,0.,24.0,0.,24.0
1979-07-24 18:12:31.360 ,1,0,0.,24.0,0.,24.0,0.,24.0,0.,24.0
1979-07-24 18:12:55.360 ,2,1,0.,24.0,0.,24.0,0.,24.0,0.,24.0
1979-07-24 18:13:19.360 ,2,0,0.,24.0,0.,24.0,0.,24.0,0.,24.0
1979-07-24 18:13:43.360 ,3,1,0.,24.0,0.,24.0,0.,24.0,0.,24.0
1979-07-24 18:14:07.360 ,3,0,1.,24.0,0.,24.0,0.,24.0,0.,24.0
1979-07-24 18:14:31.360 ,4,1,0.,24.0,0.,24.0,0.,24.0,0.,24.0
1979-07-24 18:14:55.360 ,4,0,0.,24.0,0.,24.0,0.,24.0,0.,24.0
1979-07-24 18:15:19.360 ,5,1,0.,24.0,0.,24.0,0.,24.0,0.,24.0
1979-07-24 18:15:43.360 ,5,0,0.,24.0,0.,24.0,0.,24.0,0.,24.0
1979-07-24 18:16:07.360 ,6,1,0.,24.0,0.,24.0,0.,24.0,0.,24.0
1979-07-24 18:16:31.360 ,6,0,0.,24.0,0.,24.0,0.,24.0,0.,24.0
1979-07-24 18:16:55.360 ,7,1,0.,24.0,0.,24.0,0.,24.0,0.,24.0
1979-07-24 18:17:19.360 ,7,0,0.,24.0,0.,24.0,0.,24.0,0.,24.0
1979-07-24 18:17:43.360 ,7,1,0.,24.0,0.,24.0,0.,24.0,0.,24.0
1979-07-24 18:18:07.360 ,7,0,0.,24.0,0.,24.0,0.,24.0,0.,24.0
1979-07-24 18:18:31.360 ,6,1,0.,24.0,0.,24.0,0.,24.0,0.,24.0
1979-07-24 18:18:55.360 ,6,0,0.,24.0,0.,24.0,0.,24.0,0.,24.0
1979-07-24 18:19:19.360 ,5,1,0.,24.0,0.,24.0,0.,24.0,0.,24.0
1979-07-24 18:19:43.360 ,5,0,0.,24.0,0.,24.0,0.,24.0,0.,24.0
1979-07-24 18:20:07.360 ,4,1,0.,24.0,0.,24.0,0.,24.0,0.,24.0
1979-07-24 18:20:31.360 ,4,0,0.,24.0,0.,24.0,0.,24.0,0.,24.0
1979-07-24 18:20:55.360 ,3,1,0.,24.0,0.,24.0,0.,24.0,0.,24.0
1979-07-24 18:21:19.360 ,3,0,0.,24.0,0.,24.0,0.,24.0,0.,24.0
1979-07-24 18:21:43.360 ,2,1,0.,24.0,0.,24.0,0.,24.0,0.,24.0
1979-07-24 18:22:07.360 ,2,0,0.,24.0,0.,24.0,0.,24.0,0.,24.0
1979-07-24 18:22:31.360 ,1,1,0.,24.0,0.,24.0,0.,24.0,0.,24.0
1979-07-24 18:22:55.360 ,1,0,0.,24.0,0.,24.0,0.,24.0,0.,24.0
1979-07-24 18:23:19.360 ,0,1,0.,24.0,0.,24.0,0.,24.0,0.,24.0
1979-07-24 18:23:43.360 ,0,0,0.,24.0,0.,24.0,0.,24.0,0.,24.0
1979-07-24 18:24:07.360 ,0,1,0.,24.0,0.,24.0,0.,24.0,0.,24.0
1979-07-24 18:24:31.360 ,0,0,0.,24.0,0.,24.0,0.,24.0,0.,24.0
1979-07-24 18:24:55.360 ,1,1,0.,24.0,0.,24.0,0.,24.0,0.,24.0
1979-07-24 18:25:19.360 ,1,0,0.,24.0,0.,24.0,0.,24.0,0.,24.0
1979-07-24 18:25:43.360 ,2,1,0.,24.0,0.,24.0,0.,24.0,0.,24.0
1979-07-24 18:26:07.360 ,2,0,0.,24.0,0.,24.0,0.,24.0,0.,24.0
1979-07-24 18:26:31.360 ,3,1,0.,24.0,0.,24.0,0.,24.0,0.,24.0
1979-07-24 18:26:55.360 ,3,0,0.,24.0,0.,24.0,0.,24.0,0.,24.0
1979-07-24 18:27:19.360 ,4,1,0.,24.0,0.,24.0,0.,24.0,0.,24.0
1979-07-24 18:27:43.360 ,4,0,0.,24.0,0.,24.0,0.,24.0,0.,24.0
1979-07-24 18:28:07.360 ,5,1,0.,24.0,0.,24.0,0.,24.0,0.,24.0
1979-07-24 18:28:31.360 ,5,0,0.,24.0,0.,24.0,0.,24.0,0.,24.0
1979-07-24 18:28:55.360 ,6,1,0.,24.0,0.,24.0,0.,24.0,0.,24.0
1979-07-24 18:29:19.360 ,6,0,0.,24.0,0.,24.0,0.,24.0,0.,24.0
1979-07-24 18:29:43.360 ,7,1,0.,24.0,0.,24.0,0.,24.0,0.,24.0
1979-07-24 18:30:07.360 ,7,0,0.,24.0,0.,24.0,0.,24.0,0.,24.0
1979-07-24 18:30:31.360 ,7,1,0.,24.0,0.,24.0,0.,24.0,0.,24.0
1979-07-24 18:30:55.360 ,7,0,0.,24.0,0.,24.0,0.,24.0,0.,24.0
1979-07-24 18:31:19.360 ,6,1,0.,24.0,0.,24.0,0.,24.0,0.,24.0
1979-07-24 18:31:43.360 ,6,0,0.,24.0,0.,24.0,0.,24.0,0.,24.0
1979-07-24 18:32:07.360 ,5,1,0.,24.0,0.,24.0,0.,24.0,0.,24.0
1979-07-24 18:32:31.360 ,5,0,0.,24.0,0.,24.0,0.,24.0,0.,24.0
1979-07-24 18:32:55.360 ,4,1,0.,24.0,0.,24.0,0.,24.0,0.,24.0
1979-07-24 18:33:19.360 ,4,0,0.,24.0,0.,24.0,0.,24.0,0.,24.0
1979-07-24 18:33:43.360 ,3,1,0.,24.0,0.,24.0,0.,24.0,0.,24.0
1979-07-24 18:34:07.360 ,3,0,0.,24.0,0.,24.0,0.,24.0,0.,24.0
1979-07-24 18:34:31.360 ,2,1,0.,24.0,0.,24.0,0.,24.0,0.,24.0
1979-07-24 18:34:55.360 ,2,0,0.,24.0,0.,24.0,0.,24.0,0.,24.0
1979-07-24 18:35:19.360 ,1,1,0.,24.0,0.,24.0,0.,24.0,0.,24.0
1979-07-24 18:35:43.360 ,1,0,0.,24.0,0.,24.0,0.,24.0,0.,24.0
1979-07-24 18:36:07.360 ,0,1,0.,24.0,0.,24.0,0.,24.0,0.,24.0
1979-07-24 18:36:31.360 ,0,0,0.,24.0,0.,24.0,0.,24.0,0.,24.0
1979-07-24 18:36:55.360 ,0,1,0.,24.0,0.,24.0,0.,24.0,0.,24.0
1979-07-24 18:37:19.360 ,0,0,0.,24.0,0.,24.0,0.,24.0,0.,24.0
1979-07-24 18:37:43.360 ,1,1,0.,24.0,0.,24.0,0.,24.0,0.,24.0
1979-07-24 18:38:07.360 ,1,0,0.,24.0,0.,24.0,0.,24.0,0.,24.0
1979-07-24 18:38:31.360 ,2,1,0.,24.0,0.,24.0,0.,24.0,0.,24.0
1979-07-24 18:38:55.360 ,2,0,0.,24.0,0.,24.0,0.,24.0,0.,24.0
1979-07-24 18:39:19.360 ,3,1,0.,24.0,0.,24.0,0.,24.0,0.,24.0
1979-07-24 18:39:43.360 ,3,0,0.,24.0,0.,24.0,0.,24.0,0.,24.0
1979-07-24 18:40:07.360 ,4,1,0.,24.0,0.,24.0,0.,24.0,0.,24.0
1979-07-24 18:40:31.360 ,4,0,0.,24.0,0.,24.0,0.,24.0,0.,24.0
1979-07-24 18:40:55.360 ,5,1,0.,24.0,0.,24.0,0.,24.0,0.,24.0
1979-07-24 18:41:19.360 ,5,0,0.,24.0,0.,24.0,0.,24.0,0.,24.0
1979-07-24 18:41:43.360 ,6,1,0.,24.0,0.,24.0,0.,24.0,0.,24.0
1979-07-24 18:42:07.360 ,6,0,0.,24.0,0.,24.0,0.,24.0,0.,24.0
1979-07-24 18:42:31.360 ,7,0,0.,24.0,0.,24.0,0.,24.0,0.,24.0
1979-07-24 18:42:55.360 ,7,0,0.,24.0,0.,24.0,0.,24.0,0.,24.0
1979-07-24 18:43:19.360 ,5,1,0.,24.0,0.,24.0,0.,24.0,0.,24.0
1979-07-24 18:43:43.360 ,1,1,0.,24.0,0.,24.0,0.,24.0,0.,24.0
1979-07-24 18:44:07.360 ,2,1,0.,24.0,0.,24.0,0.,24.0,0.,24.0
1979-07-24 18:44:31.360 ,6,1,0.,24.0,0.,24.0,0.,24.0,0.,24.0
1979-07-24 18:44:55.360 ,5,1,0.,24.0,0.,24.0,0.,24.0,0.,24.0
1979-07-24 18:45:19.360 ,1,1,0.,24.0,0.,24.0,0.,24.0,0.,24.0
1979-07-24 18:45:43.360 ,2,1,0.,24.0,0.,24.0,0.,24.0,0.,24.0
1979-07-24 18:46:07.360 ,6,1,0.,24.0,0.,24.0,0.,24.0,0.,24.0
1979-07-24 18:46:31.360 ,5,1,0.,24.0,0.,24.0,0.,24.0,0.,24.0
1979-07-24 18:46:55.360 ,1,1,0.,24.0,0.,24.0,0.,24.0,0.,24.0
1979-07-24 18:47:19.360 ,2,1,0.,24.0,0.,24.0,0.,24.0,0.,24.0
1979-07-24 18:47:43.360 ,6,1,0.,24.0,0.,24.0,0.,24.0,0.,24.0
1979-07-24 18:48:07.360 ,5,1,0.,24.0,0.,24.0,0.,24.0,0.,24.0
1979-07-24 18:48:31.360 ,1,1,0.,24.0,0.,24.0,0.,24.0,0.,24.0
1979-07-24 18:48:55.360 ,2,1,0.,24.0,0.,24.0,0.,24.0,0.,24.0
1979-07-24 18:49:19.360 ,6,1,0.,24.0,0.,24.0,0.,24.0,0.,24.0
1979-07-24 18:49:43.360 ,5,1,1.,24.0,0.,24.0,0.,24.0,0.,24.0
1979-07-24 18:50:07.360 ,1,1,0.,24.0,0.,24.0,0.,24.0,0.,24.0
1979-07-24 18:50:31.360 ,2,1,0.,24.0,0.,24.0,0.,24.0,0.,24.0
1979-07-24 18:50:55.360 ,6,1,0.,24.0,0.,24.0,0.,24.0,0.,24.0
1979-07-24 18:51:19.360 ,5,1,0.,24.0,0.,24.0,0.,24.0,0.,24.0
1979-07-24 18:51:43.360 ,1,1,0.,24.0,0.,24.0,0.,24.0,0.,24.0
1979-07-24 18:52:07.360 ,2,1,0.,24.0,0.,24.0,0.,24.0,0.,24.0
1979-07-24 18:52:31.360 ,6,1,0.,24.0,0.,24.0,0.,24.0,0.,24.0
1979-07-24 18:52:55.360 ,5,1,0.,24.0,0.,24.0,0.,24.0,0.,24.0
1979-07-24 18:53:19.360 ,1,1,0.,24.0,0.,24.0,0.,24.0,0.,24.0
1979-07-24 18:53:43.360 ,0,0,0.,24.0,0.,24.0,0.,24.0,0.,24.0
1979-07-24 18:54:07.360 ,0,0,0.,24.0,0.,24.0,0.,24.0,0.,24.0
1979-07-24 18:54:31.360 ,5,1,0.,24.0,0.,24.0,0.,24.0,0.,24.0
1979-07-24 18:54:55.360 ,5,0,0.,24.0,0.,24.0,0.,24.0,0.,24.0
1979-07-24 18:55:19.360 ,4,1,0.,24.0,0.,24.0,0.,24.0,0.,24.0
1979-07-24 18:55:43.360 ,4,0,1.,24.0,0.,24.0,0.,24.0,0.,24.0
1979-07-24 18:56:07.360 ,3,1,0.,24.0,0.,24.0,0.,24.0,0.,24.0
1979-07-24 18:56:31.360 ,3,0,0.,24.0,0.,24.0,0.,24.0,0.,24.0
1979-07-24 18:56:55.360 ,2,1,0.,24.0,0.,24.0,0.,24.0,0.,24.0
1979-07-24 18:57:19.360 ,2,0,0.,24.0,0.,24.0,0.,24.0,0.,24.0
1979-07-24 18:57:43.360 ,1,1,0.,24.0,0.,24.0,0.,24.0,0.,24.0
1979-07-24 18:58:07.360 ,1,0,0.,24.0,0.,24.0,0.,24.0,0.,24.0
1979-07-24 18:58:31.360 ,0,1,0.,24.0,0.,24.0,0.,24.0,0.,24.0
1979-07-24 18:58:55.360 ,0,0,0.,24.0,0.,24.0,0.,24.0,0.,24.0
1979-07-24 18:59:19.360 ,0,1,0.,24.0,0.,24.0,0.,24.0,0.,24.0
1979-07-24 18:59:43.360 ,0,0,0.,24.0,0.,24.0,0.,24.0,0.,24.0
1979-07-24 19:00:07.360 ,1,1,0.,24.0,0.,24.0,0.,24.0,0.,24.0
1979-07-24 19:00:31.360 ,1,0,0.,24.0,0.,24.0,0.,24.0,0.,24.0
1979-07-24 19:00:55.360 ,2,1,0.,24.0,0.,24.0,0.,24.0,0.,24.0
1979-07-24 19:01:19.360 ,2,0,0.,24.0,0.,24.0,0.,24.0,0.,24.0
1979-07-24 19:01:43.360 ,3,1,0.,24.0,0.,24.0,0.,24.0,0.,24.0
1979-07-24 19:02:07.360 ,3,0,0.,24.0,0.,24.0,0.,24.0,0.,24.0
1979-07-24 19:02:31.360 ,4,1,0.,24.0,0.,24.0,0.,24.0,0.,24.0
1979-07-24 19:02:55.360 ,4,0,0.,24.0,0.,24.0,0.,24.0,0.,24.0
1979-07-24 19:03:19.360 ,5,1,0.,24.0,0.,24.0,0.,24.0,0.,24.0
1979-07-24 19:03:43.360 ,5,0,0.,24.0,0.,24.0,0.,24.0,0.,24.0
1979-07-24 19:04:07.360 ,6,1,0.,24.0,0.,24.0,0.,24.0,0.,24.0
1979-07-24 19:04:31.360 ,6,0,0.,24.0,0.,24.0,0.,24.0,0.,24.0
1979-07-24 19:04:55.360 ,7,1,0.,24.0,0.,24.0,0.,24.0,0.,24.0
1979-07-24 19:05:19.360 ,7,0,0.,24.0,0.,24.0,0.,24.0,0.,24.0
1979-07-24 19:05:43.360 ,7,1,0.,24.0,0.,24.0,0.,24.0,0.,24.0
1979-07-24 19:06:07.360 ,7,0,0.,24.0,0.,24.0,0.,24.0,0.,24.0
1979-07-24 19:06:31.360 ,6,1,0.,24.0,0.,24.0,0.,24.0,0.,24.0
1979-07-24 19:06:55.360 ,6,0,0.,24.0,0.,24.0,0.,24.0,0.,24.0
1979-07-24 19:07:19.360 ,5,1,0.,24.0,0.,24.0,0.,24.0,0.,24.0
1979-07-24 19:07:43.360 ,5,0,0.,24.0,0.,24.0,0.,24.0,0.,24.0
1979-07-24 19:08:07.360 ,4,1,0.,24.0,0.,24.0,0.,24.0,0.,24.0
1979-07-24 19:08:31.360 ,4,0,0.,24.0,0.,24.0,0.,24.0,0.,24.0
1979-07-24 19:08:55.360 ,3,1,0.,24.0,0.,24.0,0.,24.0,0.,24.0
1979-07-24 19:09:19.360 ,3,0,0.,24.0,0.,24.0,0.,24.0,0.,24.0
1979-07-24 19:09:43.360 ,2,1,0.,24.0,0.,24.0,0.,24.0,0.,24.0
1979-07-24 19:10:07.360 ,2,0,0.,24.0,0.,24.0,0.,24.0,0.,24.0
1979-07-24 19:10:31.360 ,1,1,0.,24.0,0.,24.0,0.,24.0,0.,24.0
1979-07-24 19:10:55.360 ,1,0,0.,24.0,0.,24.0,0.,24.0,0.,24.0
1979-07-24 19:11:19.360 ,0,1,0.,24.0,0.,24.0,0.,24.0,0.,24.0
1979-07-24 19:11:43.360 ,0,0,0.,24.0,0.,24.0,0.,24.0,0.,24.0
1979-07-24 19:12:07.360 ,0,1,0.,24.0,0.,24.0,0.,24.0,0.,24.0
1979-07-24 19:12:31.360 ,0,0,0.,24.0,0.,24.0,0.,24.0,0.,24.0
1979-07-24 19:12:55.360 ,1,1,0.,24.0,0.,24.0,0.,24.0,0.,24.0
1979-07-24 19:13:19.360 ,1,0,0.,24.0,0.,24.0,0.,24.0,0.,24.0
1979-07-24 19:13:43.360 ,2,1,0.,24.0,0.,24.0,0.,24.0,0.,24.0
1979-07-24 19:14:07.360 ,2,0,0.,24.0,0.,24.0,0.,24.0,0.,24.0
1979-07-24 19:14:31.360 ,3,1,0.,24.0,0.,24.0,0.,24.0,0.,24.0
1979-07-24 19:14:55.360 ,3,0,0.,24.0,0.,24.0,0.,24.0,0.,24.0
1979-07-24 19:15:19.360 ,4,1,0.,24.0,0.,24.0,0.,24.0,0.,24.0
1979-07-24 19:15:43.360 ,4,0,0.,24.0,0.,24.0,0.,24.0,0.,24.0
1979-07-24 19:16:07.360 ,5,1,0.,24.0,0.,24.0,0.,24.0,0.,24.0
1979-07-24 19:16:31.360 ,5,0,0.,24.0,0.,24.0,0.,24.0,0.,24.0
1979-07-24 19:16:55.360 ,6,1,0.,24.0,0.,24.0,0.,24.0,0.,24.0
1979-07-24 19:17:19.360 ,6,0,0.,24.0,0.,24.0,0.,24.0,0.,24.0
1979-07-24 19:17:43.360 ,7,1,0.,24.0,0.,24.0,0.,24.0,0.,24.0
1979-07-24 19:18:07.360 ,7,0,0.,24.0,0.,24.0,0.,24.0,0.,24.0
1979-07-24 19:18:31.360 ,7,1,0.,24.0,0.,24.0,0.,24.0,0.,24.0
1979-07-24 19:18:55.360 ,7,0,0.,24.0,0.,24.0,0.,24.0,0.,24.0
1979-07-24 19:19:19.360 ,6,1,0.,24.0,0.,24.0,0.,24.0,0.,24.0
1979-07-24 19:19:43.360 ,6,0,0.,24.0,0.,24.0,0.,24.0,0.,24.0
1979-07-24 19:20:07.360 ,5,1,0.,24.0,0.,24.0,0.,24.0,0.,24.0
1979-07-24 19:20:31.360 ,5,0,0.,24.0,0.,24.0,0.,24.0,0.,24.0
1979-07-24 19:20:55.360 ,4,1,0.,24.0,0.,24.0,0.,24.0,0.,24.0
1979-07-24 19:21:19.360 ,4,0,0.,24.0,0.,24.0,0.,24.0,0.,24.0
1979-07-24 19:21:43.360 ,3,1,0.,24.0,0.,24.0,0.,24.0,0.,24.0
1979-07-24 19:22:07.360 ,3,0,0.,24.0,0.,24.0,0.,24.0,0.,24.0
1979-07-24 19:22:31.360 ,2,1,0.,24.0,0.,24.0,0.,24.0,0.,24.0
1979-07-24 19:22:55.360 ,2,0,0.,24.0,0.,24.0,0.,24.0,0.,24.0
1979-07-24 19:23:19.360 ,1,1,0.,24.0,0.,24.0,0.,24.0,0.,24.0
1979-07-24 19:23:43.360 ,1,0,0.,24.0,0.,24.0,0.,24.0,0.,24.0
1979-07-24 19:24:07.360 ,0,1,0.,24.0,0.,24.0,0.,24.0,0.,24.0
1979-07-24 19:24:31.360 ,0,0,0.,24.0,0.,24.0,0.,24.0,0.,24.0
1979-07-24 19:24:55.360 ,0,1,0.,24.0,0.,24.0,0.,24.0,0.,24.0
1979-07-24 19:25:19.360 ,0,0,0.,24.0,0.,24.0,0.,24.0,0.,24.0
1979-07-24 19:25:43.360 ,1,1,0.,24.0,0.,24.0,0.,24.0,0.,24.0
1979-07-24 19:26:07.360 ,1,0,0.,24.0,0.,24.0,0.,24.0,0.,24.0
1979-07-24 19:26:31.360 ,2,1,0.,24.0,0.,24.0,0.,24.0,0.,24.0
1979-07-24 19:26:55.360 ,2,0,0.,24.0,0.,24.0,0.,24.0,0.,24.0
1979-07-24 19:27:19.360 ,3,1,0.,24.0,0.,24.0,0.,24.0,0.,24.0
1979-07-24 19:27:43.360 ,3,0,0.,24.0,0.,24.0,0.,24.0,0.,24.0
1979-07-24 19:28:07.360 ,4,1,0.,24.0,0.,24.0,0.,24.0,0.,24.0
1979-07-24 19:28:31.360 ,4,0,0.,24.0,0.,24.0,0.,24.0,0.,24.0
1979-07-24 19:28:55.360 ,5,1,0.,24.0,0.,24.0,0.,24.0,0.,24.0
1979-07-24 19:29:19.360 ,5,0,0.,24.0,0.,24.0,0.,24.0,0.,24.0
1979-07-24 19:29:43.360 ,6,1,0.,24.0,0.,24.0,0.,24.0,0.,24.0
1979-07-24 19:30:07.360 ,6,0,0.,24.0,0.,24.0,0.,24.0,0.,24.0
1979-07-24 19:30:31.360 ,7,0,0.,24.0,0.,24.0,0.,24.0,0.,24.0
1979-07-24 19:30:55.360 ,7,0,0.,24.0,0.,24.0,0.,24.0,0.,24.0
1979-07-24 19:31:19.360 ,5,1,0.,24.0,0.,24.0,0.,24.0,0.,24.0
1979-07-24 19:31:43.360 ,1,1,0.,24.0,0.,24.0,0.,24.0,0.,24.0
1979-07-24 19:32:07.360 ,2,1,0.,24.0,0.,24.0,0.,24.0,0.,24.0
1979-07-24 19:32:31.360 ,6,1,0.,24.0,0.,24.0,0.,24.0,0.,24.0
1979-07-24 19:32:55.360 ,5,1,0.,24.0,0.,24.0,0.,24.0,0.,24.0
1979-07-24 19:33:19.360 ,1,1,0.,24.0,0.,24.0,0.,24.0,0.,24.0
1979-07-24 19:33:43.360 ,2,1,0.,24.0,0.,24.0,0.,24.0,0.,24.0
1979-07-24 19:34:07.360 ,6,1,0.,24.0,0.,24.0,0.,24.0,0.,24.0
1979-07-24 19:34:31.360 ,5,1,0.,24.0,0.,24.0,0.,24.0,0.,24.0
1979-07-24 19:34:55.360 ,1,1,0.,24.0,0.,24.0,0.,24.0,0.,24.0
1979-07-24 19:35:19.360 ,2,1,0.,24.0,0.,24.0,0.,24.0,0.,24.0
1979-07-24 19:35:43.360 ,6,1,0.,24.0,0.,24.0,0.,24.0,0.,24.0
1979-07-24 19:36:07.360 ,5,1,0.,24.0,0.,24.0,0.,24.0,0.,24.0
1979-07-24 19:36:07.360 ,5,1,0.,24.0,0.,24.0,0.,24.0,0.,24.0
1979-07-24 19:36:31.360 ,1,1,0.,24.0,0.,24.0,0.,24.0,0.,24.0
1979-07-24 19:36:55.360 ,2,1,0.,24.0,0.,24.0,0.,24.0,0.,24.0
1979-07-24 19:37:19.360 ,6,1,0.,24.0,0.,24.0,0.,24.0,0.,24.0
1979-07-24 19:37:43.360 ,5,1,0.,24.0,0.,24.0,0.,24.0,0.,24.0
1979-07-24 19:38:07.360 ,1,1,0.,24.0,0.,24.0,0.,24.0,0.,24.0
1979-07-24 19:38:31.360 ,2,1,0.,24.0,0.,24.0,0.,24.0,0.,24.0
1979-07-24 19:38:55.360 ,6,1,0.,24.0,0.,24.0,0.,24.0,0.,24.0
1979-07-24 19:39:19.360 ,5,1,0.,24.0,0.,24.0,0.,24.0,0.,24.0
1979-07-24 19:39:43.360 ,1,1,0.,24.0,0.,24.0,0.,24.0,0.,24.0
1979-07-24 19:40:07.360 ,2,1,0.,24.0,0.,24.0,0.,24.0,0.,24.0
1979-07-24 19:40:31.360 ,6,1,0.,24.0,0.,24.0,0.,24.0,0.,24.0
1979-07-24 19:40:55.360 ,5,1,0.,24.0,0.,24.0,0.,24.0,0.,24.0
1979-07-24 19:41:19.360 ,1,1,0.,24.0,0.,24.0,0.,24.0,0.,24.0
1979-07-24 19:41:43.360 ,0,0,0.,24.0,0.,24.0,0.,24.0,0.,24.0
1979-07-24 19:42:07.360 ,0,0,0.,24.0,0.,24.0,0.,24.0,0.,24.0
1979-07-24 19:42:31.360 ,5,1,0.,24.0,0.,24.0,0.,24.0,0.,24.0
1979-07-24 19:42:55.360 ,5,0,0.,24.0,0.,24.0,0.,24.0,0.,24.0
1979-07-24 19:43:19.360 ,4,1,0.,24.0,0.,24.0,0.,24.0,0.,24.0
1979-07-24 19:43:43.360 ,4,0,0.,24.0,0.,24.0,0.,24.0,0.,24.0
1979-07-24 19:44:07.360 ,3,1,0.,24.0,0.,24.0,0.,24.0,0.,24.0
1979-07-24 19:44:31.360 ,3,0,0.,24.0,0.,24.0,0.,24.0,0.,24.0
1979-07-24 19:44:55.360 ,2,1,0.,24.0,0.,24.0,0.,24.0,0.,24.0
1979-07-24 19:45:19.360 ,2,0,0.,24.0,0.,24.0,0.,24.0,0.,24.0
1979-07-24 19:45:43.360 ,1,1,0.,24.0,0.,24.0,0.,24.0,0.,24.0
1979-07-24 19:46:07.360 ,1,0,0.,24.0,0.,24.0,0.,24.0,0.,24.0
1979-07-24 19:46:31.360 ,0,1,0.,24.0,0.,24.0,0.,24.0,0.,24.0
1979-07-24 19:46:55.360 ,0,0,0.,24.0,0.,24.0,0.,24.0,0.,24.0
1979-07-24 19:47:19.360 ,0,1,0.,24.0,0.,24.0,0.,24.0,0.,24.0
1979-07-24 19:47:43.360 ,0,0,0.,24.0,0.,24.0,0.,24.0,0.,24.0
1979-07-24 19:48:31.360 ,1,0,0.,24.0,0.,24.0,0.,24.0,0.,24.0
1979-07-24 19:48:55.360 ,2,1,0.,24.0,0.,24.0,0.,24.0,0.,24.0
1979-07-24 19:49:19.360 ,2,0,0.,24.0,0.,24.0,0.,24.0,0.,24.0
1979-07-24 19:49:43.360 ,3,1,0.,24.0,0.,24.0,0.,24.0,0.,24.0
1979-07-24 19:50:07.360 ,3,0,0.,24.0,0.,24.0,0.,24.0,0.,24.0
1979-07-24 19:50:31.360 ,4,1,0.,24.0,0.,24.0,0.,24.0,0.,24.0
1979-07-24 19:50:55.360 ,4,0,0.,24.0,0.,24.0,0.,24.0,0.,24.0
1979-07-24 19:51:19.360 ,5,1,0.,24.0,0.,24.0,0.,24.0,0.,24.0
1979-07-24 19:51:43.360 ,5,0,0.,24.0,0.,24.0,0.,24.0,0.,24.0
1979-07-24 19:52:07.360 ,6,1,0.,24.0,0.,24.0,0.,24.0,0.,24.0
1979-07-24 19:52:31.360 ,6,0,0.,24.0,0.,24.0,0.,24.0,0.,24.0
1979-07-24 19:52:55.360 ,7,1,0.,24.0,0.,24.0,0.,24.0,0.,24.0
1979-07-24 19:53:19.360 ,7,0,0.,24.0,0.,24.0,0.,24.0,0.,24.0
1979-07-24 19:53:43.360 ,7,1,0.,24.0,0.,24.0,0.,24.0,0.,24.0
1979-07-24 19:54:07.360 ,7,0,0.,24.0,0.,24.0,0.,24.0,0.,24.0
1979-07-24 19:54:31.360 ,6,1,0.,24.0,0.,24.0,0.,24.0,0.,24.0
1979-07-24 19:54:55.360 ,6,0,0.,24.0,0.,24.0,0.,24.0,0.,24.0
1979-07-24 19:55:19.360 ,5,1,0.,24.0,0.,24.0,0.,24.0,0.,24.0
1979-07-24 19:55:43.360 ,5,0,0.,24.0,0.,24.0,0.,24.0,0.,24.0
1979-07-24 19:56:07.360 ,4,1,0.,24.0,0.,24.0,0.,24.0,0.,24.0
1979-07-24 19:56:31.360 ,4,0,0.,24.0,0.,24.0,0.,24.0,0.,24.0
1979-07-24 19:56:55.360 ,3,1,0.,24.0,0.,24.0,0.,24.0,0.,24.0
1979-07-24 19:57:19.360 ,3,0,0.,24.0,0.,24.0,0.,24.0,0.,24.0
1979-07-24 19:57:43.360 ,2,1,0.,24.0,0.,24.0,0.,24.0,0.,24.0
1979-07-24 19:58:07.360 ,2,0,0.,24.0,0.,24.0,0.,24.0,0.,24.0
1979-07-24 19:58:31.360 ,1,1,0.,24.0,0.,24.0,0.,24.0,0.,24.0
1979-07-24 19:58:55.360 ,1,0,0.,24.0,0.,24.0,0.,24.0,0.,24.0
1979-07-24 19:59:19.360 ,0,1,0.,24.0,0.,24.0,0.,24.0,0.,24.0
1979-07-24 19:59:43.360 ,0,0,0.,24.0,0.,24.0,0.,24.0,0.,24.0
1979-07-24 20:00:07.360 ,0,1,0.,24.0,0.,24.0,0.,24.0,0.,24.0
1979-07-24 20:00:31.360 ,0,0,0.,24.0,0.,24.0,0.,24.0,0.,24.0
1979-07-24 20:00:55.360 ,1,1,0.,24.0,0.,24.0,0.,24.0,0.,24.0
1979-07-24 20:01:19.360 ,1,0,0.,24.0,0.,24.0,0.,24.0,0.,24.0
1979-07-24 20:01:43.360 ,2,1,0.,24.0,0.,24.0,0.,24.0,0.,24.0
1979-07-24 20:02:07.360 ,2,0,0.,24.0,0.,24.0,0.,24.0,0.,24.0
1979-07-24 20:02:31.360 ,3,1,0.,24.0,0.,24.0,0.,24.0,0.,24.0
1979-07-24 20:02:55.360 ,3,0,0.,24.0,0.,24.0,0.,24.0,0.,24.0
1979-07-24 20:03:19.360 ,4,1,0.,24.0,0.,24.0,0.,24.0,0.,24.0
1979-07-24 20:03:43.360 ,4,0,0.,24.0,0.,24.0,0.,24.0,0.,24.0
1979-07-24 20:04:07.360 ,5,1,0.,24.0,0.,24.0,0.,24.0,0.,24.0
1979-07-24 20:04:31.360 ,5,0,0.,24.0,0.,24.0,0.,24.0,0.,24.0
1979-07-24 20:04:55.360 ,6,1,0.,24.0,0.,24.0,0.,24.0,0.,24.0
1979-07-24 20:05:19.360 ,6,0,0.,24.0,0.,24.0,0.,24.0,0.,24.0
1979-07-24 20:05:43.350 ,7,1,0.,24.0,0.,24.0,0.,24.0,0.,24.0
1979-07-24 20:06:07.350 ,7,0,0.,24.0,0.,24.0,0.,24.0,0.,24.0
1979-07-24 20:06:31.350 ,7,1,0.,24.0,0.,24.0,0.,24.0,0.,24.0
1979-07-24 20:06:55.350 ,7,0,0.,24.0,0.,24.0,0.,24.0,0.,24.0
1979-07-24 20:07:19.350 ,6,1,0.,24.0,0.,24.0,0.,24.0,0.,24.0
1979-07-24 20:07:43.350 ,6,0,0.,24.0,0.,24.0,0.,24.0,0.,24.0
1979-07-24 20:08:07.350 ,5,1,0.,24.0,0.,24.0,0.,24.0,0.,24.0
1979-07-24 20:08:31.350 ,5,0,0.,24.0,0.,24.0,0.,24.0,0.,24.0
1979-07-24 20:08:55.360 ,4,1,0.,24.0,0.,24.0,0.,24.0,0.,24.0
1979-07-24 20:09:19.360 ,4,0,0.,24.0,0.,24.0,0.,24.0,0.,24.0
1979-07-24 20:09:43.360 ,3,1,0.,24.0,0.,24.0,0.,24.0,0.,24.0
1979-07-24 20:10:07.360 ,3,0,0.,24.0,0.,24.0,0.,24.0,0.,24.0
1979-07-24 20:10:31.360 ,2,1,0.,24.0,0.,24.0,0.,24.0,0.,24.0
1979-07-24 20:10:55.360 ,2,0,0.,24.0,0.,24.0,0.,24.0,0.,24.0
1979-07-24 20:11:19.360 ,1,1,0.,24.0,0.,24.0,0.,24.0,0.,24.0
1979-07-24 20:11:43.360 ,1,0,0.,24.0,0.,24.0,0.,24.0,0.,24.0
1979-07-24 20:12:07.360 ,0,1,0.,24.0,0.,24.0,0.,24.0,0.,24.0
1979-07-24 20:12:31.360 ,0,0,0.,24.0,0.,24.0,0.,24.0,0.,24.0
1979-07-24 20:12:55.360 ,0,1,0.,24.0,0.,24.0,0.,24.0,0.,24.0
1979-07-24 20:13:19.360 ,0,0,0.,24.0,0.,24.0,0.,24.0,0.,24.0
1979-07-24 20:13:43.360 ,1,1,0.,24.0,0.,24.0,0.,24.0,0.,24.0
1979-07-24 20:14:07.360 ,1,0,0.,24.0,0.,24.0,0.,24.0,0.,24.0
1979-07-24 20:14:31.360 ,2,1,0.,24.0,0.,24.0,0.,24.0,0.,24.0
1979-07-24 20:14:55.360 ,2,0,0.,24.0,0.,24.0,0.,24.0,0.,24.0
1979-07-24 20:15:19.360 ,3,1,0.,24.0,0.,24.0,0.,24.0,0.,24.0
1979-07-24 20:15:43.360 ,3,0,0.,24.0,0.,24.0,0.,24.0,0.,24.0
1979-07-24 20:16:07.360 ,4,1,0.,24.0,0.,24.0,0.,24.0,0.,24.0
1979-07-24 20:16:31.360 ,4,0,0.,24.0,0.,24.0,0.,24.0,0.,24.0
1979-07-24 20:18:31.350 ,7,0,0.,24.0,0.,24.0,0.,24.0,0.,24.0
1979-07-24 20:18:55.350 ,7,0,0.,24.0,0.,24.0,0.,24.0,0.,24.0
1979-07-24 20:19:19.350 ,5,1,1.,24.0,0.,24.0,0.,24.0,0.,24.0
1979-07-24 20:19:43.350 ,1,1,0.,24.0,0.,24.0,0.,24.0,0.,24.0
1979-07-24 20:20:07.350 ,2,1,0.,24.0,0.,24.0,0.,24.0,0.,24.0
1979-07-24 20:20:31.350 ,6,1,0.,24.0,0.,24.0,0.,24.0,0.,24.0
1979-07-24 20:20:55.350 ,5,1,0.,24.0,0.,24.0,0.,24.0,0.,24.0
1979-07-24 20:21:19.350 ,1,1,1.,24.0,0.,24.0,0.,24.0,0.,24.0
1979-07-24 20:21:43.350 ,2,1,0.,24.0,0.,24.0,0.,24.0,0.,24.0
1979-07-24 20:22:07.350 ,6,1,0.,24.0,0.,24.0,0.,24.0,0.,24.0
1979-07-24 20:22:31.350 ,5,1,0.,24.0,0.,24.0,0.,24.0,0.,24.0
1979-07-24 20:22:55.350 ,1,1,0.,24.0,0.,24.0,0.,24.0,0.,24.0
1979-07-24 20:23:19.350 ,2,1,0.,24.0,0.,24.0,0.,24.0,0.,24.0
1979-07-24 20:23:43.350 ,6,1,0.,24.0,0.,24.0,0.,24.0,0.,24.0
1979-07-24 20:24:07.350 ,5,1,0.,24.0,0.,24.0,0.,24.0,0.,24.0
1979-07-24 20:24:31.350 ,1,1,0.,24.0,0.,24.0,0.,24.0,0.,24.0
1979-07-24 20:24:55.350 ,2,1,0.,24.0,0.,24.0,0.,24.0,0.,24.0
1979-07-24 20:25:19.350 ,6,1,0.,24.0,0.,24.0,0.,24.0,0.,24.0
1979-07-24 20:25:43.350 ,5,1,1.,24.0,0.,24.0,0.,24.0,0.,24.0
1979-07-24 20:26:07.350 ,1,1,0.,24.0,0.,24.0,0.,24.0,0.,24.0
1979-07-24 20:26:31.350 ,2,1,0.,24.0,0.,24.0,0.,24.0,0.,24.0
1979-07-24 20:26:55.350 ,6,1,0.,24.0,0.,24.0,0.,24.0,0.,24.0
1979-07-24 20:27:19.350 ,5,1,0.,24.0,0.,24.0,0.,24.0,0.,24.0
1979-07-24 20:27:43.350 ,1,1,0.,24.0,0.,24.0,0.,24.0,0.,24.0
1979-07-24 20:28:07.350 ,2,1,0.,24.0,0.,24.0,0.,24.0,0.,24.0
1979-07-24 20:28:31.350 ,6,1,0.,24.0,0.,24.0,0.,24.0,0.,24.0
1979-07-24 20:28:55.350 ,5,1,0.,24.0,0.,24.0,0.,24.0,0.,24.0
1979-07-24 20:29:19.350 ,1,1,0.,24.0,0.,24.0,0.,24.0,0.,24.0
1979-07-24 20:29:43.350 ,0,0,0.,24.0,0.,24.0,0.,24.0,0.,24.0
1979-07-24 20:30:07.350 ,0,0,0.,24.0,0.,24.0,0.,24.0,0.,24.0
1979-07-24 20:30:31.350 ,5,1,0.,24.0,0.,24.0,0.,24.0,0.,24.0
1979-07-24 20:30:55.350 ,5,0,0.,24.0,0.,24.0,0.,24.0,0.,24.0
1979-07-24 20:31:19.350 ,4,1,0.,24.0,0.,24.0,0.,24.0,0.,24.0
1979-07-24 20:31:43.350 ,4,0,0.,24.0,0.,24.0,0.,24.0,0.,24.0
1979-07-24 20:32:07.350 ,3,1,0.,24.0,0.,24.0,0.,24.0,0.,24.0
1979-07-24 20:32:31.350 ,3,0,0.,24.0,0.,24.0,0.,24.0,0.,24.0
1979-07-24 20:32:55.350 ,2,1,0.,24.0,0.,24.0,0.,24.0,0.,24.0
1979-07-24 20:33:19.350 ,2,0,0.,24.0,0.,24.0,0.,24.0,0.,24.0
1979-07-24 20:33:43.350 ,1,1,0.,24.0,0.,24.0,0.,24.0,0.,24.0
1979-07-24 20:34:07.350 ,1,0,0.,24.0,0.,24.0,0.,24.0,0.,24.0
1979-07-24 20:34:31.350 ,0,1,0.,24.0,0.,24.0,0.,24.0,0.,24.0
1979-07-24 20:34:55.350 ,0,0,0.,24.0,0.,24.0,0.,24.0,0.,24.0
1979-07-24 20:35:19.350 ,0,1,0.,24.0,0.,24.0,0.,24.0,0.,24.0
1979-07-24 20:35:43.350 ,0,0,0.,24.0,0.,24.0,0.,24.0,0.,24.0
1979-07-24 20:36:07.350 ,1,1,0.,24.0,0.,24.0,0.,24.0,0.,24.0